RH
5 5 5 5 5 5 5 5 5 5 5 4 4 4 4 4 4 4 3 3 3 3 2 2 2 3 3 5 6 7 8 10 14 17 20 20 21 24 27 31 35 40 43 45 45 46 45 45 44 40 35 31 31 28 29 23 28 56 60 54 42 25 25 32 38 42 43 43 43 44 45 48 48 43 40 41 43 51 57 56 53 54 60 58 53 47 39 33 29 26 23 22 22 22 21 20 19
4 4 4 4 4 4 4 4 4 4 4 4 4 4 4 4 4 3 4 3 3 3 3 2 2 3 4 5 6 9 10 12 16 18 20 19 20 21 23 30 38 46 48 48 47 47 46 45 43 36 34 33 32 27 27 26 33 54 63 59 40 23 26 35 43 45 44 43 44 46 47 47 49 47 43 44 46 53 62 61 56 57 63 63 61 56 46 39 34 31 28 27 27 26 25 23 22
3 3 3 3 3 3 3 3 3 4 3 4 4 4 4 4 4 4 4 3 3 3 3 3 3 3 3 5 7 10 13 15 17 19 19 19 20 21 25 32 40 45 45 45 45 44 43 41 38 35 35 35 32 23 25 29 36 53 65 62 39 24 28 38 45 44 44 45 46 47 48 49 51 52 47 46 50 56 64 66 62 63 65 66 68 64 54 46 39 35 33 33 31 29 28 27 25
3 2 2 2 2 2 2 2 2 3 3 3 4 4 4 4 4 4 3 3 3 3 3 3 3 3 4 6 7 11 16 17 20 20 21 22 25 30 34 39 42 42 41 41 40 40 39 38 36 36 35 37 33 23 28 35 41 56 67 61 39 27 32 42 46 44 45 47 49 50 50 52 55 56 51 49 53 60 66 68 68 70 71 70 71 70 63 54 44 39 37 36 34 32 31 30 29
2 2 2 2 1 1 1 1 2 2 3 3 4 3 4 4 4 3 3 3 3 3 3 3 3 3 4 7 8 13 18 19 22 22 24 29 33 40 42 43 44 43 42 40 40 40 39 38 36 36 36 39 34 26 35 43 49 61 67 58 39 32 39 46 46 44 46 49 53 54 54 57 60 59 55 52 55 64 72 73 70 73 78 74 73 75 72 64 52 42 40 39 37 35 33 34 33
1 1 1 1 1 1 1 1 1 2 3 3 4 4 4 4 4 4 3 3 3 3 3 3 4 3 5 7 10 16 21 23 26 27 33 39 43 48 49 48 47 46 44 42 41 40 39 38 37 38 37 38 31 29 44 54 59 68 68 55 39 37 44 48 46 44 47 51 55 57 59 62 63 63 59 56 57 65 77 81 75 76 81 77 74 78 81 77 63 46 41 41 39 38 36 36 38
1 1 1 1 1 1 1 1 1 3 3 3 4 4 4 4 4 3 3 4 3 3 3 3 3 4 9 9 14 20 23 26 30 34 40 49 54 55 55 53 51 49 46 44 43 40 40 39 40 40 35 31 28 38 55 63 71 76 70 53 39 41 47 48 45 46 49 53 57 61 66 68 68 68 65 60 60 66 77 87 84 80 83 82 80 81 85 90 80 55 42 43 41 40 39 38 41
1 1 1 1 1 1 1 1 1 3 4 4 5 5 5 4 3 3 3 3 3 4 3 3 3 5 9 10 18 24 26 30 33 38 43 51 57 58 58 55 53 52 49 47 46 45 45 44 43 37 29 24 29 51 66 71 79 82 71 49 38 44 49 48 46 48 52 55 58 64 71 73 72 73 72 65 65 70 78 90 90 85 86 86 85 84 87 95 94 70 47 44 46 42 39 40 43
2 2 1 1 1 1 1 1 2 3 4 5 6 6 4 3 3 3 3 3 3 4 3 4 4 7 11 13 21 28 33 38 38 42 46 50 54 56 57 54 52 50 48 47 47 48 47 44 37 27 23 22 39 68 76 79 86 84 66 44 41 48 48 45 44 49 54 57 60 66 72 77 79 78 76 71 70 74 80 90 92 89 87 86 88 88 87 90 95 85 60 47 53 51 42 40 42
2 2 2 2 1 1 1 2 3 3 5 6 6 5 4 4 3 3 4 4 3 4 5 6 6 10 15 17 26 34 39 41 41 44 47 49 51 51 50 48 47 47 47 44 44 44 41 37 26 18 21 30 57 82 84 86 89 77 57 46 48 45 41 43 44 49 55 60 63 67 72 81 87 84 81 78 77 81 84 91 94 89 84 83 90 94 94 92 90 92 77 54 58 63 53 44 42
2 2 2 2 1 2 2 3 3 4 6 7 6 4 4 4 3 4 4 4 4 7 8 9 11 14 19 24 33 41 42 42 41 43 44 46 47 45 41 39 40 43 42 40 38 36 33 27 20 25 39 54 73 85 88 89 84 71 57 49 41 33 38 43 43 47 55 62 66 70 76 83 90 89 87 84 84 87 89 94 92 88 87 84 86 92 96 99 93 95 90 67 61 71 65 53 46
2 2 2 2 2 2 2 3 4 5 6 7 5 4 5 4 4 5 4 5 7 13 17 16 19 21 25 30 37 42 40 40 39 40 41 41 41 39 36 34 34 34 33 31 27 26 25 21 27 47 64 72 80 86 90 89 80 66 53 39 27 29 41 44 41 46 57 66 69 74 79 82 87 91 92 91 91 91 94 97 86 82 95 96 90 87 90 98 96 97 98 82 69 73 71 61 53
2 2 2 2 2 2 3 4 5 6 7 6 5 4 5 5 5 5 4 7 10 22 29 27 31 32 33 34 36 37 36 36 36 37 38 36 34 31 30 29 27 26 23 20 17 19 21 26 43 64 75 77 82 89 88 81 71 56 42 33 29 33 39 41 41 46 62 72 72 77 82 84 87 94 97 96 96 96 96 96 83 77 85 93 94 91 90 90 87 93 101 96 81 75 72 62 56
2 2 2 2 1 3 4 5 6 6 7 6 5 5 5 6 6 6 6 8 13 28 38 40 45 43 39 38 35 34 33 33 33 34 33 31 29 26 24 22 20 19 17 15 15 21 32 48 68 76 78 81 84 83 79 71 63 52 41 35 33 34 34 35 40 51 67 72 71 77 84 85 87 95 101 99 99 99 96 89 81 80 79 84 94 95 93 85 83 93 101 101 89 77 70 61 56
2 2 1 2 1 3 4 6 7 7 8 6 6 5 6 6 6 7 8 13 23 31 39 47 52 49 43 39 35 33 32 31 31 30 28 26 24 19 17 15 16 16 16 15 17 34 58 76 83 81 78 80 83 81 76 70 60 46 33 25 24 27 25 26 40 59 68 66 69 80 85 85 86 94 99 99 100 99 94 85 79 84 87 90 95 96 94 87 88 97 99 101 93 77 65 59 58
1 2 1 2 2 4 6 6 8 9 8 7 7 6 6 7 6 8 9 17 30 33 35 43 46 45 42 38 35 34 32 30 29 27 25 23 19 16 16 15 16 20 21 22 28 47 71 81 76 74 76 82 85 82 78 68 51 32 19 14 14 15 14 22 47 69 68 56 63 81 87 84 84 92 97 98 100 100 94 87 84 88 91 92 92 95 97 93 94 98 99 100 94 76 57 55 60
1 2 1 2 3 5 7 7 10 10 9 8 8 8 7 7 9 11 12 17 29 35 34 36 38 39 39 37 37 35 32 30 27 26 24 21 18 18 18 16 18 23 24 25 34 51 70 79 75 73 80 86 84 79 75 62 40 23 14 11 11 11 12 27 53 70 60 44 55 78 86 81 78 87 98 99 99 97 92 87 88 91 95 95 92 96 100 99 96 95 98 97 93 79 54 51 59
1 2 1 2 4 7 8 9 13 13 10 9 10 12 10 10 13 14 19 24 28 33 35 34 35 37 39 39 39 35 33 31 27 26 24 21 21 21 24 26 25 23 20 22 35 58 73 75 76 79 84 86 83 80 73 55 35 22 16 12 13 16 19 30 43 49 45 40 55 75 81 74 72 87 98 100 97 93 92 92 92 95 98 97 96 99 99 97 93 94 98 93 91 82 57 49 56
2 2 2 4 6 9 10 11 16 17 13 10 11 13 13 15 16 17 27 32 31 34 36 36 37 38 38 38 37 34 33 31 27 26 25 23 24 26 30 32 37 38 31 27 35 49 58 58 64 72 80 88 90 86 73 53 35 22 16 13 15 23 28 31 33 33 33 40 55 72 79 70 66 82 92 95 96 93 94 93 93 97 97 95 97 100 96 94 95 98 97 90 89 81 61 49 51
2 2 4 7 8 10 12 12 18 24 17 13 13 13 17 20 20 24 32 35 36 38 37 37 39 39 36 35 34 33 35 32 27 28 27 27 27 27 28 32 54 70 59 48 44 39 42 47 56 68 81 94 95 86 73 55 36 22 15 12 15 24 29 31 33 30 29 42 59 66 69 66 66 78 88 95 95 90 88 88 91 96 97 94 94 95 96 96 100 100 94 89 84 72 59 48 45
2 2 6 8 8 11 14 12 19 28 23 18 16 15 20 21 21 27 32 34 37 39 37 37 39 37 34 33 34 35 36 31 27 28 28 29 29 28 29 34 58 80 82 76 66 59 56 50 52 70 87 96 95 86 72 53 36 25 17 12 16 24 30 34 36 33 30 37 54 60 58 64 76 84 90 95 92 88 88 90 94 95 94 93 93 96 99 99 99 97 89 83 72 61 58 51 45
2 3 7 8 8 12 14 12 22 32 31 28 21 20 24 23 25 26 27 35 37 37 39 38 34 32 32 32 34 35 33 29 27 27 29 33 35 36 33 33 44 64 88 94 86 86 87 74 68 80 94 97 93 81 64 49 37 27 20 18 23 28 28 32 35 35 33 33 45 57 61 68 79 88 91 90 89 90 95 96 96 96 93 94 98 99 97 97 97 91 81 74 65 60 62 59 52
3 4 7 8 9 13 14 14 24 33 39 39 25 25 33 30 30 28 30 38 38 37 37 36 32 29 31 32 35 35 31 29 30 26 28 33 37 41 42 42 46 59 86 98 91 93 96 95 91 91 96 93 82 69 56 49 41 26 21 23 20 17 17 26 37 41 41 41 45 53 60 66 74 81 84 86 92 96 99 98 96 96 94 94 98 98 98 98 92 81 74 70 62 62 67 63 58
3 6 8 8 9 15 16 14 22 30 43 47 28 29 43 40 35 34 38 41 39 39 35 34 31 29 31 33 38 37 32 33 34 27 26 33 39 48 55 56 60 64 80 93 91 92 94 96 94 90 89 83 75 69 62 56 42 23 23 30 21 15 23 37 49 54 57 55 57 65 68 70 70 69 73 86 98 100 98 96 95 96 94 94 97 100 100 92 81 74 71 66 60 66 72 65 57
4 7 7 8 10 15 17 14 19 29 45 53 37 37 50 47 42 43 46 42 40 40 35 33 30 28 29 35 41 39 36 36 38 31 24 31 39 50 60 62 70 70 71 84 91 93 96 92 86 84 82 79 76 73 71 61 44 31 35 45 41 36 42 51 57 62 69 69 70 79 79 74 69 65 75 92 100 100 97 94 93 95 96 98 100 99 93 82 75 72 66 60 57 64 69 64 55
6 9 7 8 10 14 17 16 19 26 43 54 48 49 53 49 47 48 49 44 41 38 35 32 26 26 31 38 43 41 40 40 40 33 26 40 51 54 58 57 63 67 64 69 76 83 89 87 82 81 80 79 76 75 76 64 48 43 46 56 63 66 70 69 69 71 76 83 83 83 81 78 77 77 84 93 96 99 99 96 94 96 99 100 99 94 86 79 74 68 61 54 48 47 50 55 54
8 11 10 11 11 14 17 19 20 22 35 51 54 57 56 49 48 50 49 44 41 37 33 30 26 28 34 40 43 43 45 45 43 34 29 50 71 71 66 58 56 62 64 61 65 77 84 85 83 82 80 79 76 76 77 68 55 46 43 53 63 76 88 84 84 85 83 91 90 82 79 80 83 86 91 94 98 101 100 99 97 98 100 97 93 87 82 77 71 65 57 48 38 34 39 50 57
10 12 13 15 14 14 17 20 22 21 29 47 53 56 58 51 49 52 49 43 40 36 32 29 28 31 37 40 41 42 46 47 45 41 32 38 66 84 81 80 80 78 77 73 78 87 87 84 80 73 67 70 78 79 78 69 54 47 49 56 58 70 85 83 87 93 91 94 90 81 78 80 87 91 94 98 100 100 99 99 99 100 99 93 89 85 79 73 68 62 52 44 36 39 52 63 67
13 15 16 18 17 16 18 20 23 22 25 39 45 46 53 54 52 53 48 41 37 35 33 31 31 36 41 41 42 44 46 50 48 48 42 33 61 97 99 97 99 94 93 92 92 92 89 83 73 62 54 62 78 80 74 65 54 57 63 60 58 67 76 73 75 82 89 94 90 87 83 84 93 96 97 100 99 98 99 100 99 99 97 92 89 82 74 69 64 57 48 41 36 44 64 78 81
19 19 20 21 21 21 21 20 22 23 24 30 35 37 46 53 56 55 49 44 39 38 36 35 37 38 37 35 36 41 47 56 54 52 48 31 47 86 97 97 99 98 99 95 87 80 77 72 67 62 52 54 70 69 62 60 56 57 54 49 53 65 72 70 66 66 78 88 85 86 85 87 97 100 99 100 99 100 100 100 99 99 97 91 87 78 70 65 59 52 41 39 48 64 78 88 91
20 21 24 23 22 24 24 22 22 25 25 26 28 32 41 52 60 58 53 51 47 45 43 40 40 34 28 24 23 27 38 52 56 57 61 48 47 65 75 80 84 85 88 86 79 71 65 60 60 60 49 46 55 56 54 56 55 49 43 41 49 58 62 60 58 60 71 82 81 80 79 84 95 98 97 97 99 101 101 101 100 97 90 84 80 71 65 61 54 47 39 43 65 80 87 95 95
19 19 25 26 23 25 26 25 24 25 26 26 26 28 34 44 54 56 55 56 55 51 47 45 39 30 28 25 20 19 26 44 58 65 72 68 62 60 58 59 59 60 66 69 66 63 62 57 55 53 45 41 43 45 50 54 54 48 41 37 41 48 54 57 61 65 73 84 84 75 70 75 84 88 89 94 100 101 98 96 91 85 79 74 70 63 60 59 53 47 41 46 62 74 87 99 94
19 20 30 32 28 26 26 26 26 25 25 26 26 26 27 31 38 45 51 56 61 58 52 48 39 33 36 30 21 18 24 47 61 62 62 59 54 50 47 46 44 43 47 51 50 53 57 56 55 51 41 33 32 36 43 47 48 44 37 33 35 44 61 74 77 77 82 90 83 68 63 67 74 79 84 93 97 96 91 85 80 77 73 68 63 61 61 58 54 51 48 53 59 67 90 100 91
24 29 37 39 36 31 26 26 27 26 26 26 26 26 25 26 28 32 37 44 56 61 57 53 43 40 43 34 22 18 31 55 58 49 48 48 48 46 45 43 40 39 39 40 43 48 53 53 54 51 42 33 28 28 30 34 39 41 38 33 30 37 57 75 79 81 85 83 70 58 58 66 74 80 85 90 93 93 90 86 83 80 75 66 63 62 58 53 53 54 55 61 60 69 94 101 91
33 38 41 43 43 37 29 27 27 26 26 26 26 26 25 26 26 25 27 30 40 50 55 57 52 49 45 34 22 18 37 59 54 46 45 47 51 50 49 47 41 38 35 36 39 43 46 47 48 48 44 40 32 26 23 24 28 36 39 35 29 28 39 55 65 70 70 63 55 53 58 67 74 78 82 88 91 92 91 88 83 76 68 62 62 58 49 45 48 49 51 58 59 69 94 101 95
34 40 44 45 46 44 35 28 27 27 26 26 26 26 26 26 26 25 24 24 28 34 42 51 54 51 42 30 22 20 38 56 54 48 46 50 56 51 49 47 41 36 33 32 35 37 38 38 39 39 40 44 40 32 25 22 23 28 34 35 32 28 27 34 41 46 48 49 53 56 60 66 70 74 79 82 82 81 78 74 66 58 53 54 56 50 41 42 47 46 45 51 52 59 83 98 100
32 34 39 44 44 45 41 32 27 27 26 26 26 25 25 24 24 24 23 23 24 26 29 36 41 39 31 24 21 21 36 53 55 49 46 52 56 52 50 46 39 36 33 30 31 34 35 34 34 33 38 46 47 40 31 26 25 26 30 32 32 31 28 26 27 33 42 50 56 59 60 62 66 71 74 71 67 62 53 46 41 40 42 43 41 36 32 37 47 48 41 40 40 47 76 98 101
29 26 29 38 42 42 44 39 32 29 27 26 26 24 24 24 23 23 23 22 23 23 23 24 26 26 23 21 20 22 34 49 53 48 46 53 57 58 56 48 39 35 32 31 31 32 33 32 32 31 34 43 49 45 35 29 27 28 32 36 35 33 30 27 27 35 47 54 58 60 60 62 66 68 65 57 49 39 32 27 23 24 29 30 27 25 24 27 39 47 38 28 29 42 68 89 97
27 24 23 30 40 41 42 45 40 33 29 27 26 25 23 23 23 22 22 22 22 22 21 21 21 21 21 21 20 22 32 44 49 45 47 54 61 66 62 51 42 34 29 29 29 29 29 29 30 32 35 41 47 45 38 33 31 34 41 44 42 38 33 32 32 38 48 56 60 62 60 59 58 54 49 43 37 31 30 30 22 16 18 19 20 20 19 21 28 40 38 26 25 38 55 68 81
31 29 24 25 36 39 38 44 46 41 36 31 27 26 25 23 22 22 22 22 21 21 20 20 21 20 21 21 21 26 39 50 51 47 50 55 61 68 64 54 45 35 28 26 25 26 26 26 29 35 43 49 50 47 42 38 36 41 48 49 47 44 41 40 41 45 53 57 60 63 57 51 48 46 48 50 50 48 46 44 37 29 22 16 15 17 19 19 20 28 35 30 25 34 47 56 65
37 34 29 28 34 37 37 41 45 45 42 37 31 28 27 24 23 23 22 21 21 20 20 20 20 21 21 21 21 26 43 57 55 52 54 54 59 68 65 56 47 38 31 26 25 25 26 27 29 34 44 51 52 51 47 43 41 42 47 50 52 50 49 49 49 52 55 52 56 64 61 56 54 55 60 62 61 60 56 53 50 45 37 26 19 17 18 19 19 23 30 30 25 29 43 55 59
39 37 38 38 38 38 38 39 43 45 44 41 38 32 29 26 25 24 23 22 20 19 19 19 20 20 20 23 22 24 40 54 54 52 52 50 58 70 67 58 48 41 35 29 26 26 25 25 28 33 40 45 49 51 49 46 44 43 45 48 50 52 53 52 53 54 51 51 60 71 71 69 68 64 65 64 61 59 56 53 51 49 45 39 31 26 24 22 21 25 29 29 26 30 43 54 52
42 44 45 45 44 42 41 40 43 44 44 43 42 38 32 28 27 26 24 22 21 20 20 21 22 21 23 27 26 30 43 52 51 49 49 52 65 73 67 57 48 42 37 31 27 25 24 24 28 36 42 44 47 49 48 45 45 46 48 51 54 56 57 57 57 55 56 64 73 76 74 71 68 64 61 59 56 54 52 50 49 47 45 43 41 37 32 28 26 29 34 34 33 36 43 49 46
48 49 49 46 45 46 45 43 43 43 42 42 43 43 37 31 30 29 26 24 22 21 23 25 26 25 28 30 31 39 49 51 51 52 54 62 71 70 63 55 47 40 34 31 29 25 25 28 35 45 49 47 47 48 48 46 45 47 50 55 58 59 60 61 57 57 67 75 73 69 66 63 60 57 55 52 50 48 46 46 46 45 43 41 41 39 34 31 29 30 33 31 29 31 35 38 39
48 49 48 47 46 46 46 44 43 42 41 40 41 43 40 35 33 32 31 30 28 29 32 34 35 34 34 33 35 46 53 50 49 51 55 65 70 65 58 51 43 36 32 31 30 26 29 38 48 54 51 45 44 47 50 50 50 51 53 54 54 55 58 58 55 62 73 74 70 70 65 61 59 56 53 50 47 44 42 42 42 41 40 37 35 33 30 28 25 23 22 20 19 22 26 29 31
48 48 47 46 45 45 44 43 42 41 40 39 39 40 40 36 33 33 35 37 36 38 40 41 44 44 41 38 41 50 54 50 48 48 52 60 63 56 50 45 42 41 41 38 31 27 33 46 56 57 51 45 47 50 53 55 54 53 54 54 54 55 59 60 59 69 77 77 80 81 72 65 60 53 49 46 44 43 41 39 38 37 36 34 32 30 26 24 22 20 19 17 16 17 20 20 20
47 46 45 45 44 44 43 41 41 39 37 36 35 37 38 35 32 31 35 41 42 43 44 42 44 47 46 44 44 48 51 52 51 50 51 55 52 46 42 43 49 54 53 45 32 26 33 48 56 54 50 49 52 54 55 54 54 54 57 61 62 62 64 67 67 71 78 82 84 82 75 66 55 46 44 42 41 42 40 37 35 34 34 32 30 29 25 23 22 23 23 22 22 21 20 18 16
46 46 45 44 43 43 43 40 39 36 34 34 33 35 39 34 29 30 33 39 43 43 43 41 44 48 48 47 46 47 50 54 55 54 52 50 45 40 38 42 55 64 60 45 29 25 34 48 53 52 51 55 56 56 55 53 55 60 65 66 65 66 67 69 70 71 75 80 82 80 74 61 47 42 42 40 39 39 38 37 35 32 32 31 30 28 26 24 23 23 24 24 24 24 22 20 18
44 44 45 44 43 43 42 41 38 35 33 32 30 36 43 34 28 31 33 37 43 45 43 42 45 50 51 50 50 50 51 51 53 53 52 49 43 39 37 41 56 67 62 45 28 27 43 54 55 55 56 57 56 54 52 53 57 64 65 62 61 64 67 68 68 69 73 79 79 77 67 52 42 38 35 32 31 31 32 34 35 33 31 29 29 28 26 25 24 24 24 23 22 22 21 20 19
46 49 51 51 51 48 44 41 38 34 33 31 29 36 43 35 28 32 35 37 43 46 44 42 43 48 51 53 52 53 53 51 51 52 52 50 44 41 41 44 57 66 64 55 43 45 58 63 60 61 60 58 56 53 51 51 54 57 56 53 54 58 62 64 65 67 72 75 69 63 55 45 38 33 30 32 35 35 33 31 32 34 32 29 30 31 30 29 29 29 29 29 28 28 28 27 27
58 61 65 65 62 56 53 52 47 39 33 31 31 35 39 34 30 35 40 41 44 47 45 43 42 43 49 54 55 53 53 52 52 53 54 51 44 47 51 49 57 66 66 65 67 68 70 68 66 65 62 60 59 56 54 52 51 51 50 51 54 57 59 60 64 67 68 62 54 50 49 46 42 40 42 46 46 44 42 38 34 34 34 33 31 31 30 27 26 26 26 27 29 31 33 35 35
69 66 63 63 61 58 60 62 56 48 40 33 31 32 33 34 36 44 50 47 46 48 46 44 44 44 49 57 58 55 53 52 53 53 54 52 48 55 60 55 59 67 66 69 80 81 76 73 73 69 66 66 67 64 60 56 54 54 57 61 64 64 61 57 59 62 62 58 54 54 58 59 57 56 56 51 44 40 40 42 41 38 37 37 36 34 31 28 26 26 25 25 26 29 34 39 42
78 70 61 62 67 64 62 61 54 48 44 38 33 29 27 32 42 54 60 56 49 48 46 45 46 48 52 58 60 58 54 53 53 54 54 52 52 62 65 56 59 68 65 65 75 80 79 80 79 75 75 77 77 75 69 63 61 62 63 63 62 60 59 59 57 57 60 63 64 66 69 68 65 61 54 44 36 32 34 41 45 44 41 39 39 37 35 33 32 31 31 31 33 37 43 47 50
75 73 69 75 78 68 56 54 49 40 37 36 35 32 26 31 45 56 65 66 59 54 51 49 50 50 52 56 59 61 61 59 57 55 57 57 56 66 68 57 59 71 66 59 68 77 82 87 86 81 82 86 86 83 77 68 64 63 60 55 53 52 53 56 58 58 59 63 67 68 67 65 62 55 45 36 32 31 32 38 43 46 44 41 40 40 39 39 38 38 39 41 45 49 54 58 60
68 75 80 85 88 80 63 50 40 33 30 29 31 34 27 30 47 58 66 71 68 66 65 62 63 61 58 57 59 62 64 67 66 56 53 58 61 67 68 58 62 74 68 56 64 78 86 90 89 84 83 88 89 88 82 73 66 60 55 50 48 47 44 47 60 67 64 63 64 61 59 56 52 45 39 37 35 33 34 35 38 42 44 44 42 39 36 33 32 34 37 40 45 51 56 60 63
70 75 82 87 91 90 75 54 40 35 35 30 29 34 34 37 49 59 67 71 70 72 71 70 70 67 64 62 61 62 62 67 75 65 51 52 56 62 61 58 68 81 77 66 68 82 91 87 82 80 80 81 83 85 82 77 70 63 56 49 43 41 36 39 59 73 72 68 65 60 57 54 47 39 37 39 41 42 41 37 38 41 41 37 31 23 19 17 16 18 21 25 30 36 44 52 58
80 79 82 87 88 83 71 57 44 38 39 38 33 33 38 45 51 58 69 73 70 70 70 69 67 64 64 62 60 66 69 71 74 68 58 49 43 50 56 58 70 78 75 69 69 78 85 78 73 76 78 76 75 75 75 75 73 69 62 53 44 38 34 35 48 64 71 72 67 59 55 54 51 47 45 47 51 56 52 40 33 33 30 23 17 13 13 13 13 13 12 15 16 20 28 36 42
84 88 86 86 89 86 74 58 46 41 43 42 39 40 45 48 50 56 69 76 71 67 64 61 58 55 56 59 61 68 77 82 77 70 71 62 50 63 77 75 76 75 69 65 64 68 73 77 82 84 80 75 71 66 64 66 72 74 70 61 51 45 46 46 46 53 64 68 63 55 49 47 47 48 50 53 58 65 62 42 26 22 20 17 15 15 15 14 14 13 12 11 12 13 18 22 25
Wind_Speed
33 32 32 32 32 33 33 33 33 32 30 29 27 27 28 28 27 28 28 27 28 27 29 29 29 30 29 28 27 27 28 27 25 25 24 25 25 25 24 22 20 18 17 18 19 21 24 26 28 29 31 31 31 33 31 28 26 24 23 22 20 19 18 16 15 15 14 14 13 14 14 14 14 15 14 13 12 10 9 10 10 9 8 8 8 8 8 9 9 9 9 10 10 11 12 12 12
34 33 33 33 33 33 33 33 34 33 31 29 28 28 28 27 27 28 28 28 27 27 28 29 29 29 28 28 27 28 28 28 27 26 26 27 28 28 27 23 20 17 17 19 21 23 26 28 29 30 32 32 33 34 30 28 26 24 24 23 21 20 19 18 17 16 15 14 14 14 14 14 14 14 14 13 12 10 9 10 10 10 8 8 8 8 9 9 9 9 9 10 11 12 13 13 12
34 34 34 34 34 33 33 33 33 32 30 29 29 29 28 28 28 28 28 28 27 27 28 29 29 28 28 29 29 29 29 29 28 28 29 29 29 28 26 23 20 19 20 22 24 26 28 30 31 32 34 34 34 33 30 27 26 24 24 23 21 21 20 19 18 17 16 15 14 15 14 14 14 14 14 13 12 11 10 11 11 10 9 8 8 8 9 9 9 9 10 11 12 12 13 13 13
34 34 34 34 33 33 33 32 32 31 30 29 30 30 29 29 29 29 29 29 28 27 28 29 29 29 29 29 30 30 30 30 31 30 30 29 27 25 23 21 22 22 24 25 27 28 30 31 32 34 36 36 35 32 30 27 25 24 24 23 22 21 21 20 19 18 16 15 15 16 15 14 14 14 14 13 12 11 11 12 12 11 9 8 8 8 9 9 9 9 9 10 12 13 14 14 12
33 33 33 33 33 33 32 32 30 29 29 29 30 31 30 30 29 29 29 28 28 28 29 29 29 30 30 30 31 31 31 31 30 30 28 26 24 22 22 22 23 24 25 27 28 30 31 33 35 37 38 38 36 32 29 26 25 24 24 23 22 22 21 21 20 19 17 16 16 16 16 15 14 14 14 13 13 12 12 13 14 12 10 9 8 8 9 9 10 9 9 10 11 12 13 14 12
33 32 31 31 31 31 31 31 28 27 28 29 30 31 31 31 30 29 29 29 28 28 30 30 30 30 30 30 30 31 30 29 28 27 25 23 23 22 22 24 24 25 27 29 31 32 34 35 37 38 38 38 35 31 28 26 25 25 24 23 23 23 22 21 20 19 18 17 17 17 17 16 15 14 14 14 14 13 13 14 15 13 11 10 9 9 9 10 10 9 8 9 10 11 12 13 13
33 32 31 30 30 29 29 28 26 26 28 29 30 32 32 31 30 30 30 30 29 30 30 30 31 30 30 30 30 30 29 28 27 26 25 23 22 22 22 24 25 27 29 30 32 34 36 37 37 38 37 35 32 29 27 26 26 25 24 23 23 23 23 22 21 20 19 18 18 18 18 17 16 16 15 14 14 14 14 14 15 14 12 11 11 11 10 11 11 9 8 8 9 10 12 13 13
33 32 31 30 29 28 27 26 25 25 27 29 31 32 33 32 31 31 31 30 30 30 31 30 30 30 30 29 28 29 28 27 27 26 25 24 24 24 24 24 25 28 30 32 34 36 37 37 38 37 36 32 28 27 27 26 26 26 25 24 24 24 23 22 21 20 19 19 19 20 20 18 17 17 15 15 15 15 15 15 16 15 13 12 13 12 12 12 12 10 8 8 8 9 11 13 13
34 33 32 31 29 27 25 24 24 24 27 28 30 33 33 33 32 30 30 31 30 30 30 30 30 30 30 29 28 27 26 26 26 25 25 25 26 27 27 27 28 30 32 34 35 37 37 37 37 36 34 30 27 26 27 27 26 26 25 25 25 24 23 22 21 20 19 19 20 21 21 20 18 17 16 16 15 15 15 15 15 15 14 14 14 14 14 13 13 11 9 8 8 8 11 13 14
34 34 33 32 30 28 25 23 24 25 26 27 30 33 33 33 31 29 30 31 30 29 30 30 30 31 30 29 27 25 25 26 26 25 26 26 28 29 29 30 32 33 34 35 36 37 37 37 36 34 31 28 26 27 27 27 26 26 26 26 26 24 23 21 20 19 19 19 21 22 22 21 19 18 17 16 16 16 16 16 15 15 16 16 16 16 16 15 14 13 10 8 7 8 10 13 14
33 33 33 33 32 28 25 23 23 24 25 27 31 32 32 32 30 29 30 30 29 29 30 30 31 31 31 29 27 26 26 26 26 25 26 27 28 29 30 31 33 34 34 34 35 35 36 36 34 29 26 26 26 27 27 26 26 27 28 28 26 24 22 21 20 19 19 20 21 22 23 22 20 19 17 16 16 16 17 17 16 16 17 17 17 17 18 18 17 17 13 9 7 7 9 12 14
32 32 32 32 32 29 25 22 22 24 25 28 30 31 31 31 30 29 29 29 29 29 31 31 32 33 32 30 28 27 26 26 26 26 26 27 28 28 29 31 32 32 32 32 33 33 33 32 29 26 25 26 26 27 27 26 27 28 28 27 25 23 22 21 20 20 20 20 22 23 23 23 21 20 18 16 16 16 17 17 16 16 17 18 19 19 19 19 18 19 17 12 7 7 8 11 15
32 32 32 31 31 28 23 21 22 24 26 28 29 30 30 30 30 29 29 30 29 30 32 32 33 33 32 30 28 28 28 28 27 26 26 27 27 28 29 31 31 31 31 31 31 30 29 27 26 25 25 25 26 26 25 26 26 27 26 26 24 22 22 21 21 20 20 21 22 23 22 22 21 20 18 17 16 16 17 17 17 17 18 19 21 21 21 20 17 19 22 17 9 6 7 9 14
31 31 31 30 29 26 21 20 22 24 26 27 29 29 29 30 30 30 30 31 31 32 33 33 33 32 31 29 28 29 29 28 27 26 27 27 27 28 29 32 32 32 30 28 27 26 25 24 24 24 24 24 24 24 24 25 25 25 26 25 24 23 23 22 21 21 20 21 22 22 21 21 21 20 19 17 17 16 17 18 18 18 19 20 21 22 21 19 17 19 23 20 12 6 6 9 13
30 30 30 29 27 23 20 20 22 25 26 27 29 29 29 31 31 32 32 33 34 34 34 33 33 32 31 29 28 28 28 26 26 26 27 27 27 27 28 30 31 30 27 25 24 23 23 23 24 24 24 24 23 23 24 24 25 25 25 24 24 24 23 23 22 21 20 20 21 21 21 21 22 21 20 18 17 16 17 18 17 18 19 20 22 22 20 17 17 18 21 19 13 7 5 8 12
28 28 28 27 25 22 20 21 22 25 26 27 29 30 30 31 33 34 35 36 35 35 35 33 33 33 31 29 27 26 26 26 26 27 28 27 26 26 26 28 28 28 25 23 22 23 24 24 24 24 24 24 24 24 24 24 25 25 24 23 23 23 22 22 21 20 20 20 21 21 21 22 22 22 20 18 17 17 17 17 17 17 18 18 19 19 18 17 16 18 20 17 13 8 5 7 11
26 26 26 25 22 19 20 21 23 26 27 27 29 31 32 33 34 35 36 37 37 36 35 33 33 32 30 27 26 26 26 26 26 27 28 27 26 26 26 27 27 26 25 24 23 23 24 24 24 24 25 25 25 24 24 24 25 25 24 23 23 22 22 21 20 21 22 21 22 22 22 23 22 21 20 19 18 18 18 18 18 18 19 19 19 17 17 17 16 18 20 17 12 9 5 6 10
24 25 25 22 18 17 20 23 25 27 27 28 31 33 33 34 36 37 37 38 38 37 35 33 33 31 28 26 26 27 27 27 26 27 27 27 27 26 26 26 25 26 26 26 24 23 24 24 23 24 25 25 24 24 24 24 25 25 24 23 23 22 21 21 21 22 22 21 22 23 23 23 21 20 20 19 20 20 19 18 19 20 20 21 22 21 19 17 17 19 20 16 13 9 6 7 9
24 24 23 19 15 18 22 25 27 29 29 29 32 34 35 36 37 38 38 39 39 38 35 34 32 31 30 29 28 28 28 27 26 26 26 26 26 26 25 23 23 25 27 26 25 24 24 23 23 24 25 25 24 23 24 24 25 25 24 23 22 21 21 21 21 21 21 21 22 22 23 22 21 21 21 20 21 21 20 20 20 20 20 22 23 23 20 17 18 20 19 15 12 10 8 8 9
24 24 20 14 15 20 24 27 29 30 31 31 33 35 37 38 39 40 40 41 40 38 36 34 33 32 32 31 30 29 29 26 24 25 24 25 26 25 24 22 21 23 23 22 22 23 24 24 24 25 25 24 24 23 24 25 25 25 25 24 22 21 21 21 20 20 21 21 21 22 23 23 22 23 22 20 21 20 20 21 21 21 21 21 19 18 19 19 20 20 18 14 11 9 9 9 11
23 23 18 14 19 23 25 29 31 33 33 33 34 36 38 40 41 42 42 42 41 39 36 34 33 33 33 32 31 29 27 24 22 23 22 23 23 23 24 21 19 20 19 19 19 21 24 25 24 25 25 25 24 23 24 24 25 25 24 24 22 21 20 20 20 20 21 21 21 22 23 23 23 22 21 20 21 21 20 21 21 20 19 17 16 18 21 21 20 19 16 14 11 10 10 10 12
23 22 18 17 20 24 27 30 33 35 35 35 36 37 39 41 42 43 43 42 41 39 36 34 35 34 33 32 30 28 24 22 21 22 21 21 20 21 22 21 20 20 19 19 19 20 24 27 26 25 26 25 23 22 23 23 24 24 23 22 21 20 20 20 21 21 21 22 22 22 23 23 22 21 20 20 21 20 19 19 20 19 19 18 19 23 23 21 18 16 15 14 12 12 11 10 12
23 21 18 17 21 25 29 32 36 38 38 37 38 38 40 41 42 43 42 41 41 39 36 35 35 33 31 30 28 25 23 21 21 21 21 20 19 19 22 21 20 19 18 18 18 18 20 23 24 23 22 22 21 22 22 23 23 23 22 21 20 20 20 20 21 20 20 21 21 22 24 23 22 22 21 21 21 19 18 18 19 19 20 21 22 23 21 18 15 15 15 14 14 13 11 10 11
22 20 18 19 22 26 30 34 38 40 39 38 39 39 39 41 43 43 42 42 41 39 37 35 33 31 29 28 26 23 22 22 20 20 20 20 19 20 22 21 19 19 18 18 18 18 18 19 19 19 19 20 21 21 21 22 21 20 19 19 19 19 19 19 19 19 20 20 19 21 22 22 22 22 22 21 20 18 18 18 19 19 19 20 19 17 15 14 14 15 15 15 14 13 11 10 11
21 19 20 20 23 27 32 35 38 41 40 39 40 39 39 41 43 41 40 42 41 39 38 35 33 31 29 27 24 22 23 23 21 19 18 18 20 21 22 22 20 19 18 18 17 16 18 19 18 18 20 21 22 21 20 19 18 17 17 17 17 18 19 18 18 18 19 19 19 21 21 22 22 22 21 20 19 19 20 19 18 17 15 15 14 13 12 12 14 15 15 15 14 13 12 10 11
19 19 21 20 22 27 33 35 37 41 41 40 40 38 38 42 42 40 40 41 41 40 38 36 34 32 29 26 22 21 22 22 21 19 17 16 19 21 23 23 22 19 18 20 20 18 17 18 17 18 20 21 21 21 19 18 17 15 15 15 16 17 17 18 18 17 18 19 20 21 21 21 20 20 20 19 20 20 20 18 15 13 13 12 11 10 11 13 14 15 15 15 14 14 13 12 11
20 19 20 19 20 25 31 33 34 38 41 42 40 36 38 43 42 39 39 39 39 39 38 37 36 32 27 24 21 21 21 21 21 19 17 17 18 21 24 24 22 19 18 20 21 19 16 14 14 15 16 17 18 18 18 18 17 15 14 15 15 15 15 15 15 15 17 20 20 21 21 19 19 20 19 19 19 19 17 14 12 12 12 10 9 10 12 14 15 15 14 14 14 14 13 12 11
21 19 18 19 20 22 27 30 31 35 39 41 41 39 39 43 42 38 38 39 38 38 38 38 35 29 24 22 22 22 22 21 21 19 18 19 18 20 23 24 22 18 17 19 19 16 11 10 10 11 14 15 15 15 16 17 16 13 13 14 14 14 13 12 12 14 18 20 20 20 19 18 19 19 18 17 17 15 13 12 12 13 11 9 9 10 12 14 14 13 13 13 14 14 13 11 9
21 20 18 18 19 20 23 26 29 33 36 38 42 43 43 43 41 38 39 41 40 39 39 37 31 25 23 23 23 25 24 24 23 21 20 20 18 18 19 19 19 17 16 17 14 10 8 8 9 11 13 13 11 12 13 14 12 10 10 11 12 12 12 12 13 15 16 17 17 18 18 18 18 17 16 14 13 12 12 12 13 13 11 9 9 11 12 13 13 12 13 13 14 14 12 11 10
21 21 18 17 19 18 20 25 28 30 32 35 41 44 45 44 41 39 39 39 39 39 36 32 27 23 22 22 23 25 26 26 25 23 22 21 19 18 15 11 11 11 10 10 8 7 8 9 11 13 14 11 9 9 10 10 9 9 10 11 12 13 13 14 15 16 15 16 17 17 16 14 13 14 13 12 11 10 10 12 13 13 11 9 10 11 12 12 12 11 12 12 12 13 12 12 10
21 21 19 18 20 18 19 25 28 28 29 33 39 43 43 43 42 42 40 38 36 35 32 29 25 22 20 20 21 23 25 26 24 20 20 21 20 19 16 12 10 7 5 6 7 8 9 10 12 14 14 11 8 9 9 9 10 10 11 12 12 13 15 16 17 18 17 16 14 11 9 8 9 10 9 8 9 10 10 11 12 11 9 9 9 11 11 11 11 11 12 12 11 11 11 11 10
21 21 20 19 20 19 21 25 26 27 28 31 36 40 40 40 41 43 43 40 37 33 30 28 26 21 19 20 21 21 22 21 18 15 15 16 16 16 15 14 12 11 9 8 9 10 10 11 12 13 13 11 10 10 9 9 9 9 9 12 13 14 15 15 17 17 16 13 10 7 6 7 7 8 8 8 9 10 10 10 10 9 8 9 9 10 10 10 11 11 12 11 11 11 10 10 10
21 22 21 20 19 18 21 24 25 26 28 30 35 38 38 37 39 43 44 43 40 36 32 29 27 24 23 22 21 21 19 15 13 11 10 8 8 9 10 11 10 10 9 10 10 11 12 12 12 13 13 11 11 10 9 10 9 8 9 11 13 15 14 13 14 13 12 12 11 9 8 8 8 9 9 9 10 10 11 11 10 10 9 9 9 10 10 10 11 11 11 10 10 11 10 10 10
23 24 22 21 19 18 21 23 25 27 27 30 34 36 36 34 36 41 44 44 43 40 36 33 32 30 28 24 22 20 15 13 12 10 6 3 2 4 6 8 9 9 9 9 10 11 12 13 13 13 12 11 11 10 10 11 10 10 11 12 14 15 15 14 13 12 12 12 12 11 10 9 9 10 10 10 11 11 12 12 12 11 10 9 10 10 10 10 10 11 10 9 9 9 9 11 11
25 25 24 23 21 19 20 22 25 28 29 31 33 34 34 32 33 37 41 43 43 41 40 39 37 35 31 27 23 19 15 14 11 9 7 4 1 3 4 6 8 8 9 9 10 11 12 13 14 14 13 12 11 11 11 11 12 13 14 15 15 15 15 15 14 13 13 14 14 13 11 10 10 10 10 10 10 10 10 11 11 11 10 10 10 10 10 10 10 10 9 9 9 9 9 12 13
26 27 26 25 23 20 19 22 26 29 31 32 33 34 33 31 30 33 38 41 41 40 41 42 40 38 34 29 25 21 17 15 13 11 8 4 2 3 4 6 7 8 9 10 11 11 12 13 14 14 13 12 11 11 12 13 13 14 16 17 17 16 15 16 16 15 15 15 13 12 10 9 9 9 8 8 8 8 8 9 10 10 9 9 10 10 10 10 10 10 10 10 10 9 10 12 14
27 29 28 27 25 21 19 22 26 29 32 33 34 34 33 31 29 32 36 40 40 39 40 40 38 37 34 30 25 22 19 17 15 13 9 5 3 4 5 6 6 8 9 10 11 12 13 13 14 13 12 11 11 12 13 14 14 14 15 17 17 17 17 16 17 16 16 14 13 11 10 8 8 8 8 8 8 8 8 9 9 9 8 9 10 10 10 10 11 11 11 11 11 10 10 11 12
26 27 28 29 27 22 20 22 25 29 32 32 32 33 31 29 29 32 36 39 39 38 37 35 34 35 33 29 25 23 21 18 17 15 11 7 5 5 7 7 6 7 8 10 11 11 12 12 13 13 12 12 12 13 13 14 13 13 13 15 16 18 19 19 19 18 16 15 13 12 10 9 8 8 8 8 8 8 9 9 9 9 9 10 11 11 12 12 11 12 12 12 12 11 10 10 11
24 24 26 27 25 23 22 23 25 29 30 29 29 30 28 27 28 31 34 37 36 34 33 31 31 32 31 28 25 23 21 18 17 16 13 10 6 6 9 8 7 7 8 10 11 11 11 12 13 13 13 13 12 13 13 13 12 11 13 15 17 19 20 20 19 19 17 15 14 13 11 10 10 9 9 9 9 9 10 10 10 10 10 11 11 12 12 12 12 12 13 13 13 12 11 12 12
22 22 22 22 22 24 24 24 25 28 28 25 25 27 25 24 27 30 33 34 33 32 30 29 30 30 29 27 24 23 21 18 17 16 15 12 8 9 11 9 8 8 8 9 10 10 10 12 13 13 13 12 12 12 12 12 12 12 13 15 17 19 19 19 19 18 17 16 15 14 14 13 12 11 11 10 10 10 11 11 11 11 11 12 12 13 13 12 12 13 14 14 13 13 12 13 13
21 20 19 18 20 23 24 25 27 29 28 24 23 25 23 23 26 28 31 32 32 31 30 29 30 30 29 28 26 24 22 19 19 17 16 14 11 11 13 10 9 8 9 9 10 10 11 12 13 14 14 13 13 13 12 13 13 14 15 16 17 18 19 19 19 18 18 17 16 16 15 14 14 12 12 11 11 12 12 12 12 13 13 13 13 13 13 13 13 13 14 14 14 13 13 13 14
19 17 17 17 20 22 23 26 27 28 28 25 24 25 22 22 25 27 28 30 30 30 29 29 30 30 29 28 26 23 21 21 21 20 19 17 13 13 14 12 11 10 10 10 10 11 12 13 14 14 14 14 14 13 13 14 15 16 17 17 18 19 19 19 19 19 18 18 17 16 15 13 13 13 13 13 13 13 14 14 14 14 14 14 14 14 14 13 13 13 14 14 14 14 14 14 14
17 16 18 19 20 22 24 27 29 27 27 27 28 27 24 22 24 25 27 28 28 29 29 29 30 29 28 27 24 21 20 21 22 22 19 15 13 14 15 14 14 12 12 12 12 13 14 14 14 15 15 15 14 13 13 14 14 15 16 17 18 18 19 19 18 18 18 17 16 15 13 12 12 13 13 13 13 13 13 13 13 14 14 14 14 14 13 12 13 14 14 14 14 14 14 14 15
19 19 21 20 21 24 27 29 30 29 28 29 29 28 26 24 23 24 27 29 29 29 29 29 29 28 28 25 22 21 21 21 21 20 17 14 15 16 16 16 16 15 14 14 14 14 14 14 14 14 14 14 13 13 13 12 12 13 14 16 17 17 18 17 17 18 19 18 16 13 12 12 12 13 14 14 13 13 12 12 12 13 13 13 13 12 12 12 12 13 13 13 13 13 13 14 15
22 22 23 22 23 26 28 30 31 30 30 29 28 29 28 25 23 23 27 30 30 29 28 27 25 24 24 22 21 22 21 20 20 20 19 17 16 16 16 17 17 17 16 16 16 15 15 15 14 14 14 13 13 12 12 12 12 12 13 15 16 16 17 16 16 18 20 19 15 12 12 13 14 15 14 14 12 12 12 11 11 11 12 13 13 12 11 11 11 11 11 11 11 11 12 13 14
24 24 24 24 25 26 28 31 31 33 33 28 26 28 28 26 23 23 28 31 29 27 26 24 22 20 20 20 22 22 20 20 20 20 20 18 16 16 16 17 18 17 16 16 16 15 15 15 15 14 13 12 11 11 12 13 14 14 15 16 17 17 16 16 15 17 19 19 16 14 14 15 16 15 14 13 12 12 12 11 11 11 11 12 12 12 11 11 10 10 10 10 9 10 11 12 12
25 25 25 25 26 26 28 31 32 35 33 25 24 28 29 29 24 22 28 33 29 25 24 25 22 19 18 19 21 22 21 21 20 19 18 16 15 15 16 18 18 16 16 16 15 15 15 15 15 13 12 11 11 11 12 13 14 15 16 17 16 15 14 14 15 16 17 18 17 17 16 15 15 15 13 11 11 11 11 11 11 11 11 11 11 12 12 11 10 10 10 10 10 10 11 11 11
25 25 25 26 26 27 29 31 33 34 30 22 24 30 31 30 25 22 28 35 32 25 23 24 22 17 16 18 21 23 24 23 22 20 18 17 17 17 18 19 18 16 15 15 15 15 15 15 14 12 12 11 11 11 12 13 14 15 15 15 14 13 13 14 15 15 16 16 16 16 15 15 14 13 11 10 10 10 10 11 11 11 11 11 11 11 11 11 11 11 11 11 11 11 12 12 11
25 26 26 27 27 28 29 31 32 31 25 21 26 31 33 31 26 23 27 34 33 26 24 25 23 19 18 19 22 24 25 25 24 23 21 20 19 19 21 20 18 16 15 14 14 14 14 14 13 12 12 11 11 11 11 12 13 14 14 13 12 12 12 13 14 15 14 15 16 16 15 14 14 13 11 10 10 10 11 11 11 12 11 10 9 10 11 10 10 10 10 11 11 11 11 11 11
25 26 27 27 27 28 29 30 31 28 23 24 28 31 33 31 27 25 27 33 32 28 27 28 26 23 21 21 23 25 26 27 26 25 23 23 22 22 23 22 19 17 15 14 13 13 14 14 14 12 11 10 11 11 11 12 13 14 14 13 12 12 12 13 14 14 14 15 16 15 14 14 13 12 12 11 11 11 11 12 12 12 12 10 9 9 9 9 9 8 9 9 10 10 10 10 10
26 27 27 26 26 26 27 28 29 28 25 28 30 31 33 32 29 26 27 32 32 29 29 29 29 27 23 22 24 25 27 28 27 26 26 25 25 24 24 23 21 18 16 14 13 14 14 14 14 12 11 11 11 12 13 14 14 15 14 13 12 11 11 11 10 11 13 14 14 13 13 13 13 12 12 11 11 12 12 13 12 12 13 12 12 11 11 10 10 10 10 10 10 10 10 10 10
28 28 28 26 25 25 26 27 28 28 28 31 32 31 33 32 29 28 28 32 32 29 29 30 29 28 25 24 25 25 26 27 28 27 27 28 28 26 25 25 23 20 18 16 15 15 15 15 14 12 12 12 13 13 14 15 15 15 14 13 12 11 10 9 8 9 12 13 13 13 12 13 12 11 11 11 11 11 12 13 13 13 13 14 14 14 13 13 13 13 13 13 13 12 12 11 11
28 29 28 26 25 25 26 26 27 28 29 32 32 31 32 32 31 30 29 30 31 30 30 30 30 29 26 26 26 26 26 27 29 29 30 31 30 27 27 27 24 21 20 18 17 17 17 16 15 14 14 13 14 15 15 15 15 15 15 13 12 12 11 10 10 10 12 14 14 14 13 13 12 11 10 10 10 10 10 10 11 13 13 13 13 14 14 14 15 15 15 14 14 13 13 12 12
29 28 27 26 26 26 26 25 25 26 28 31 31 30 31 34 33 31 30 30 29 30 31 30 31 29 28 27 27 28 29 31 33 33 33 34 32 30 31 30 26 23 21 20 20 19 18 17 16 16 17 17 17 18 18 17 17 17 16 15 14 13 13 13 13 12 14 15 14 13 13 13 12 10 10 9 9 9 8 7 8 10 12 12 13 13 13 13 14 14 14 14 13 13 13 13 13
28 28 27 26 24 23 24 24 23 24 25 27 28 28 31 34 35 32 30 30 29 29 30 30 30 29 29 29 30 32 34 35 38 39 37 36 35 34 34 31 28 25 23 22 22 21 20 20 20 20 21 21 21 21 21 20 20 20 19 17 16 14 14 14 14 13 14 14 13 12 12 12 11 10 10 9 8 8 8 8 7 9 11 12 12 12 11 11 11 12 12 12 12 13 13 13 13
28 28 28 27 24 22 23 24 23 23 23 24 24 26 29 33 35 33 31 31 32 31 31 30 31 31 32 33 34 34 35 34 38 43 40 37 37 36 35 32 30 27 25 23 22 22 24 24 23 23 23 22 22 22 22 21 21 22 22 20 18 16 15 15 14 14 14 14 13 13 12 12 11 12 12 11 10 10 10 10 9 10 11 11 11 11 11 10 10 10 10 10 11 11 12 12 12
28 29 29 28 26 25 24 25 25 24 23 24 23 24 26 28 32 34 33 32 33 34 34 34 34 34 35 35 33 33 33 32 38 45 41 38 38 37 36 33 31 29 26 24 23 24 26 26 24 23 21 20 20 20 20 20 19 20 21 20 19 17 16 16 16 16 15 15 14 14 14 14 14 15 15 15 14 13 13 13 12 12 12 11 11 11 11 11 10 10 10 11 11 11 11 11 12
30 30 30 28 26 26 26 27 26 26 25 25 25 25 24 25 29 33 34 32 31 32 34 34 35 35 36 35 33 32 31 31 38 43 40 38 37 35 33 29 28 28 25 23 24 24 25 26 24 21 19 18 18 18 18 18 17 17 18 18 17 16 15 15 17 17 17 17 16 16 16 16 16 17 18 18 17 16 16 15 15 14 13 12 12 12 12 12 12 11 11 11 11 11 11 11 11
Wind_Direction
276 275 274 273 273 274 274 275 275 275 275 274 272 270 269 270 270 269 269 269 269 270 271 272 272 271 269 269 268 265 265 263 259 256 254 253 256 259 261 263 267 272 274 274 276 279 282 284 287 291 295 295 297 304 304 302 298 293 297 299 299 299 298 296 292 290 292 295 299 303 309 317 323 325 324 322 321 316 311 311 309 310 318 333 343 348 351 352 351 348 345 339 333 328 324 323 327
277 276 275 273 272 271 271 272 272 273 273 271 267 265 266 266 265 266 267 268 268 268 270 270 271 270 268 265 262 259 259 258 254 252 252 254 255 257 260 265 272 275 274 274 275 277 279 281 285 289 293 293 298 303 301 297 294 290 293 295 296 296 295 293 289 288 289 293 297 301 307 314 318 321 320 318 314 310 305 304 305 306 312 326 340 348 352 353 351 349 345 339 333 327 323 322 326
277 277 275 273 272 270 269 269 269 270 269 265 262 261 261 260 259 261 263 264 265 265 266 267 267 266 265 262 257 254 252 254 252 252 254 256 258 260 263 268 273 273 273 274 275 277 278 281 284 288 290 292 298 302 298 293 289 286 289 291 293 292 290 288 287 286 288 291 295 299 305 310 315 317 318 314 309 305 298 297 299 301 308 320 335 346 351 353 352 350 346 339 333 328 323 322 325
277 276 275 274 273 271 269 268 266 266 263 259 259 259 256 254 256 257 259 262 262 261 261 263 263 261 260 257 255 252 249 251 252 253 256 259 261 263 264 266 268 269 270 272 274 276 277 280 283 285 287 290 296 298 294 289 284 282 284 287 289 288 286 285 285 285 286 289 293 297 301 307 311 314 315 310 304 300 294 291 292 296 304 314 329 341 347 349 350 350 345 338 332 328 323 321 323
277 276 276 275 274 272 271 268 265 261 258 255 255 255 253 252 253 255 257 259 258 258 258 259 259 258 256 253 253 251 249 251 253 255 257 259 260 261 263 264 265 266 267 268 270 272 275 278 279 281 284 288 293 293 289 285 281 280 281 284 286 284 282 283 285 284 286 288 291 295 299 304 308 311 311 306 298 294 291 289 289 292 300 309 321 334 339 343 348 350 346 337 332 329 323 319 320
279 278 276 275 274 274 272 269 264 257 253 252 251 251 251 250 250 253 255 256 255 254 255 256 256 256 254 251 250 249 249 250 251 254 255 256 257 257 259 261 262 263 264 265 267 270 273 275 277 280 282 286 289 287 284 282 280 279 280 283 284 282 281 283 284 283 285 288 290 294 298 302 305 307 307 302 294 290 288 288 290 293 299 305 313 323 330 335 343 350 347 339 335 331 323 317 318
280 279 278 276 274 273 272 270 263 253 250 249 248 249 248 248 248 250 252 253 252 251 252 253 254 254 250 249 247 245 247 249 248 250 251 253 255 256 259 261 263 264 266 268 269 271 272 274 277 280 283 286 286 281 279 280 280 279 280 283 284 283 283 283 282 282 285 288 290 293 297 301 303 304 304 300 292 288 287 289 293 296 300 305 308 314 321 328 337 346 347 344 342 335 324 316 315
280 279 278 277 275 273 272 267 260 250 246 245 245 246 246 247 248 248 250 251 250 250 251 252 254 253 251 250 246 244 246 247 248 249 250 252 254 256 259 263 265 266 268 270 270 271 273 276 279 282 284 286 282 276 277 278 279 279 280 283 284 283 283 282 281 281 285 288 291 293 295 298 300 301 302 298 291 287 287 290 296 299 301 303 304 306 311 319 329 338 341 344 346 338 325 316 313
279 279 278 277 276 274 269 262 255 246 242 241 241 244 246 248 249 249 250 250 250 251 251 251 253 252 251 250 244 243 244 245 248 249 249 251 252 254 256 259 261 263 265 267 269 271 274 277 280 283 283 283 277 274 275 276 277 278 280 282 282 281 281 280 280 281 285 288 290 291 293 294 296 298 299 295 289 285 285 287 293 299 302 300 300 302 306 313 321 325 328 333 339 335 322 314 310
277 277 278 277 276 273 266 257 250 243 240 238 238 242 246 249 250 250 249 250 250 250 250 249 250 250 249 248 244 242 241 243 246 247 249 250 251 252 253 255 257 258 261 265 268 270 273 276 279 281 279 276 273 272 274 274 276 277 279 281 280 279 279 278 279 281 284 286 288 289 290 291 293 294 294 292 287 284 283 283 287 294 298 296 295 299 302 307 312 312 312 316 322 327 316 307 304
276 275 275 275 274 270 263 253 246 241 237 235 237 242 245 248 250 249 248 249 249 246 246 246 248 249 248 246 245 245 244 246 248 250 253 253 253 254 255 256 256 257 260 263 267 269 271 273 275 275 273 270 270 270 271 272 274 276 278 279 278 278 277 278 279 281 283 284 285 285 286 289 291 290 290 290 285 282 281 283 286 290 293 292 291 291 295 300 302 299 297 297 307 318 311 299 296
274 273 272 271 270 268 262 251 244 238 234 234 238 242 244 247 248 247 247 247 244 241 241 242 244 246 246 245 245 248 250 252 254 257 259 260 262 262 261 260 260 260 261 264 266 268 270 270 269 268 267 267 267 268 268 271 274 277 279 279 279 278 277 278 280 281 282 282 282 282 284 286 288 288 288 286 282 281 282 284 285 285 288 288 286 283 284 289 294 296 292 285 294 313 307 293 289
272 271 270 268 267 266 259 249 242 236 233 235 239 241 242 244 244 244 245 243 239 236 237 239 241 244 245 246 249 252 255 257 259 262 265 267 268 268 267 266 267 267 267 268 267 266 267 266 263 263 264 265 264 265 268 273 277 279 280 280 280 279 278 278 279 279 278 279 280 279 281 285 287 287 287 285 284 282 282 284 281 279 279 279 282 282 280 280 286 297 298 292 291 308 304 287 282
271 270 269 267 265 261 255 248 242 237 234 235 239 239 239 239 239 240 241 240 236 232 233 236 239 242 245 247 252 256 258 261 264 266 267 269 270 272 273 273 274 273 272 269 265 262 261 260 259 260 261 260 261 265 271 275 279 281 282 282 282 279 278 276 276 275 274 277 279 277 277 282 285 287 290 290 287 282 282 287 282 275 275 279 285 287 284 279 282 300 308 303 294 301 300 281 276
268 267 266 265 261 256 250 245 241 238 235 235 238 238 237 235 235 236 235 234 233 232 231 233 236 240 245 249 252 255 258 262 265 267 269 270 272 275 278 278 277 276 273 267 261 256 254 254 255 255 255 256 260 267 273 277 281 283 285 285 283 280 278 275 273 270 271 277 277 273 273 278 283 286 289 288 285 281 284 291 286 278 279 284 288 289 287 279 285 306 314 305 292 296 294 276 272
266 265 264 262 259 250 243 239 237 237 235 234 236 236 235 234 233 232 232 230 229 232 232 233 237 240 244 248 251 254 258 261 264 267 270 272 274 277 283 283 277 273 270 265 258 252 250 249 250 251 252 255 261 268 274 279 283 285 287 286 284 282 279 275 272 267 271 277 272 266 267 274 281 284 284 283 283 282 285 288 286 283 282 286 291 290 287 282 289 307 309 298 288 290 282 269 270
264 263 262 260 255 243 235 232 229 232 232 232 233 234 233 232 231 230 231 230 227 229 232 234 237 240 243 247 251 255 259 262 265 269 272 273 273 277 286 286 278 271 268 265 259 253 249 248 249 251 253 257 263 269 275 281 285 287 287 286 285 283 280 275 270 268 272 275 268 262 264 273 281 281 279 279 281 284 285 283 280 282 283 286 288 288 289 288 294 303 298 290 284 283 267 260 266
264 262 260 257 249 234 228 223 220 225 228 228 228 230 232 230 230 230 229 229 227 227 230 232 235 238 241 247 252 256 261 264 266 271 273 273 277 284 292 290 282 276 273 268 263 256 252 252 254 254 256 260 266 272 277 283 286 287 288 288 287 285 281 276 270 269 271 270 265 262 265 274 279 276 274 275 282 287 285 281 278 280 283 280 277 282 287 288 296 297 289 283 283 280 257 249 258
263 259 257 253 239 225 221 218 215 219 224 224 224 226 230 229 230 230 227 226 228 227 228 231 234 237 240 246 252 256 262 265 268 274 276 278 283 289 289 284 278 277 274 270 266 262 260 260 259 257 259 263 268 274 279 283 286 288 289 288 286 283 280 276 273 271 269 267 265 265 269 274 274 272 274 275 281 285 282 280 278 281 282 275 272 277 278 282 292 289 282 281 282 278 256 243 247
261 258 255 244 228 219 215 218 215 215 221 223 222 224 227 228 229 229 226 226 227 226 228 232 235 239 241 246 251 257 262 267 271 278 282 281 283 283 279 272 270 273 269 266 267 265 262 258 256 257 261 265 269 274 278 284 288 290 290 287 284 280 278 276 274 270 267 265 264 265 268 272 272 271 273 273 274 277 277 278 278 279 277 269 268 271 274 281 286 280 277 280 280 274 257 241 239
260 257 250 230 222 215 212 219 215 212 219 222 222 222 224 227 229 228 227 227 226 226 228 232 235 239 243 247 252 256 263 269 272 278 281 278 278 279 275 268 269 275 273 273 276 272 264 257 256 256 258 261 264 271 278 285 289 290 289 287 282 279 277 276 273 270 268 266 263 265 267 269 272 272 272 272 272 273 274 274 275 276 269 261 264 268 273 277 275 272 274 277 276 270 257 242 239
260 255 246 229 220 213 213 219 215 212 216 219 222 222 222 226 229 230 230 228 227 228 229 233 237 241 245 248 253 258 264 268 270 276 277 274 277 278 276 268 264 271 277 278 277 276 268 257 255 256 257 260 265 272 280 287 289 289 288 285 281 278 276 273 271 269 269 267 265 266 267 268 270 271 273 274 275 274 273 272 274 273 259 254 264 267 268 268 265 268 273 276 276 269 259 247 243
261 254 246 230 217 211 214 217 214 214 213 216 223 223 223 225 228 231 232 230 230 231 231 236 240 244 248 252 257 263 266 269 272 278 277 275 277 274 271 266 259 262 273 275 270 271 269 257 254 261 266 270 274 279 283 287 288 288 286 284 280 276 272 268 268 269 268 267 268 268 268 267 267 270 274 277 277 274 271 273 277 271 254 254 265 265 261 260 261 267 274 276 274 266 260 254 249
259 252 246 232 217 209 214 218 215 216 213 214 223 224 222 225 227 230 231 231 232 233 235 238 243 248 252 257 262 265 267 271 275 281 283 277 272 267 266 266 261 256 261 270 269 266 269 268 268 273 276 276 276 279 282 284 285 285 284 281 277 273 269 265 266 269 269 268 268 267 267 267 268 270 274 277 277 274 273 277 278 271 260 259 262 256 250 253 261 269 273 272 269 265 264 262 259
261 254 247 236 220 209 215 221 217 217 214 213 222 223 222 225 227 228 230 232 233 235 238 240 246 252 256 260 264 266 267 271 274 281 286 274 264 263 265 267 265 257 257 270 278 274 274 278 280 278 276 273 272 274 278 279 281 283 280 276 274 271 268 264 265 266 268 268 263 262 266 269 270 270 273 277 278 275 275 277 276 270 260 251 245 240 244 256 264 268 269 268 269 269 269 271 267
262 254 250 242 225 212 216 222 219 219 217 215 220 221 223 228 228 228 231 233 235 237 240 244 250 255 258 261 265 267 269 273 275 279 285 278 265 261 263 264 264 262 262 268 278 282 280 280 281 282 281 278 275 273 272 269 271 278 279 275 274 275 267 264 267 266 266 265 261 262 266 269 270 271 273 277 279 275 271 271 267 253 240 234 235 240 250 259 263 264 265 268 271 272 272 273 269
261 254 251 246 232 218 218 222 222 222 221 218 219 220 225 230 230 230 232 235 238 240 244 248 253 256 258 262 266 268 270 275 278 278 284 284 275 268 266 267 268 266 263 263 269 275 276 277 284 291 292 291 285 278 270 263 263 271 277 273 274 276 266 262 267 266 265 264 265 269 269 270 272 272 272 274 275 270 265 260 247 232 227 229 236 246 254 259 261 262 265 269 273 275 275 270 265
262 255 250 247 239 225 221 223 224 226 225 223 222 221 226 232 233 233 235 238 241 244 248 250 253 256 261 266 268 269 271 274 277 281 286 286 284 281 271 267 268 262 256 256 258 261 263 269 287 301 307 306 294 279 267 259 258 263 269 269 272 272 264 263 261 256 262 266 267 268 268 272 275 274 272 270 265 256 249 240 230 224 223 230 240 249 255 257 259 262 266 271 273 276 276 268 263
262 258 252 247 245 234 225 225 225 227 228 228 228 226 227 232 235 236 238 241 243 246 248 251 255 260 266 270 271 271 272 273 275 280 286 283 284 284 268 256 254 246 241 246 245 244 250 264 287 305 315 318 299 276 264 257 250 248 256 264 267 263 260 263 258 255 260 264 267 267 267 270 271 272 268 262 254 242 234 229 227 226 225 236 244 247 251 254 258 263 268 273 275 276 273 265 262
258 258 253 246 244 239 230 227 226 227 228 230 233 232 229 231 235 237 240 243 245 247 248 251 257 262 268 271 271 271 270 270 273 279 283 279 273 273 271 263 253 240 233 241 246 258 272 281 290 297 309 318 302 276 266 259 250 246 253 262 263 259 258 261 262 260 253 256 270 273 267 259 255 258 255 248 242 234 231 231 230 230 232 241 244 245 249 253 258 265 271 275 277 276 270 261 256
253 255 252 244 239 234 230 230 228 227 227 230 234 235 233 232 235 238 239 242 245 247 249 250 253 258 267 273 273 272 267 266 271 276 279 278 273 274 286 300 303 302 292 279 281 288 292 291 289 289 297 305 293 277 271 268 263 256 255 260 260 257 258 261 263 260 251 251 263 266 251 233 231 242 240 233 229 228 237 239 236 237 241 244 243 244 246 250 256 264 268 271 275 277 269 257 247
251 253 251 246 239 230 228 232 232 230 230 231 234 237 236 234 236 239 239 241 243 244 246 247 249 252 266 276 274 271 267 263 263 263 266 276 280 284 295 304 308 314 316 307 297 293 291 289 286 283 286 287 280 275 273 273 270 260 254 255 257 256 257 257 254 250 244 237 240 244 243 235 232 236 233 226 226 234 245 245 242 245 244 240 240 241 242 246 253 257 261 264 270 275 266 250 238
251 252 250 248 244 232 230 234 234 233 232 234 236 238 237 234 236 239 239 241 242 243 245 247 247 250 266 275 272 269 264 254 246 242 250 271 286 287 289 293 295 299 300 297 291 286 284 284 283 279 275 273 271 270 268 269 269 259 250 251 253 253 250 246 239 233 225 225 237 248 247 241 237 236 232 226 228 238 245 245 247 247 241 237 238 240 240 242 246 249 253 258 264 269 261 240 226
251 251 250 248 245 235 231 234 236 235 234 235 238 239 239 236 237 240 241 242 242 243 243 246 247 252 264 269 266 263 250 231 226 227 227 232 287 297 288 285 283 280 278 278 278 276 275 275 276 276 272 268 267 265 262 262 261 251 245 247 248 246 244 240 234 228 224 231 243 247 241 238 236 234 234 233 235 240 245 248 250 249 244 240 238 237 234 235 241 245 249 254 257 260 253 235 220
248 250 250 247 244 237 230 231 236 237 235 236 238 240 241 238 238 241 244 246 245 244 243 245 248 254 260 260 256 250 231 219 223 224 215 196 257 299 297 285 273 266 263 261 263 264 266 268 268 271 273 271 270 269 266 262 253 244 239 240 242 242 242 241 239 237 237 241 244 242 236 230 230 234 236 236 236 237 241 245 247 247 243 237 232 228 227 230 238 244 247 248 247 247 247 240 229
246 248 248 247 243 238 233 232 235 237 236 235 237 239 241 239 237 240 244 247 248 247 245 246 249 254 256 253 247 240 226 218 222 225 218 206 260 291 297 288 267 255 252 251 253 257 261 265 265 268 271 271 272 272 272 267 255 244 237 236 238 241 243 243 244 243 243 243 240 234 226 223 223 223 220 217 217 221 226 233 240 244 238 229 225 224 227 233 238 243 244 243 240 240 245 246 240
247 245 246 246 243 237 234 235 236 239 239 237 238 239 240 239 238 240 243 246 248 248 248 249 251 254 253 249 242 236 226 218 223 229 224 224 252 283 296 293 270 255 250 247 248 252 258 263 265 267 266 265 265 266 270 269 262 253 244 240 240 241 243 244 244 243 240 235 230 225 222 223 218 209 204 204 207 211 217 223 229 236 233 229 229 230 234 237 239 241 241 242 240 238 240 242 238
246 246 245 245 244 239 234 238 240 242 242 240 241 243 242 241 240 242 244 247 249 250 251 252 252 251 250 245 239 234 226 220 226 232 232 234 243 274 288 293 285 265 254 248 247 250 255 262 266 264 261 259 258 259 264 267 267 262 253 246 241 240 241 240 239 237 233 228 225 224 222 220 214 206 204 208 211 213 219 226 227 230 231 232 236 239 240 242 242 240 240 243 241 237 237 236 232
246 249 247 244 245 241 234 238 244 246 247 243 244 247 244 241 240 242 244 247 250 252 252 249 246 245 246 243 238 232 226 223 228 234 238 237 236 265 277 286 293 280 261 251 247 249 256 263 264 261 259 258 256 257 261 265 268 263 251 242 237 235 236 237 237 234 229 226 224 222 217 209 201 199 201 208 215 217 222 231 233 232 233 233 238 242 243 244 243 242 243 246 244 238 237 239 238
248 251 251 244 243 242 235 237 244 248 250 248 245 247 243 239 237 238 241 245 247 249 248 243 239 238 239 237 231 227 226 225 230 238 245 241 237 258 267 274 284 281 270 256 250 251 258 262 260 257 256 256 258 261 263 265 263 255 246 240 236 233 233 234 235 233 229 227 224 218 212 204 198 200 206 214 223 227 230 235 238 239 239 238 240 243 246 247 245 244 244 246 245 242 242 244 245
248 252 255 248 241 241 236 237 242 245 249 249 246 246 240 233 235 235 238 241 243 246 244 238 235 235 235 232 225 221 218 219 225 234 241 236 232 249 260 268 272 273 273 265 258 258 259 259 256 252 252 254 258 263 265 265 261 255 248 242 238 235 233 232 231 230 229 227 223 216 210 207 206 211 219 228 236 241 243 245 245 245 245 244 244 244 245 247 248 246 244 244 245 243 244 246 247
250 252 255 247 238 237 236 237 240 242 246 246 244 244 235 228 233 235 236 240 241 242 240 236 235 234 232 230 226 220 211 211 220 228 233 230 227 244 257 267 271 270 272 270 266 264 260 258 256 253 252 253 257 261 263 264 262 258 253 248 244 240 236 234 230 229 228 226 221 215 213 215 219 225 231 237 241 245 248 249 249 247 246 245 245 245 245 246 248 249 246 245 245 244 242 245 248
248 248 247 241 234 233 234 237 239 238 238 240 242 243 236 226 231 234 234 237 239 237 235 233 233 233 229 227 224 215 205 211 225 233 234 229 227 243 257 268 273 273 271 269 270 269 262 258 256 254 253 253 255 258 261 264 264 260 256 252 248 244 240 235 232 230 226 220 216 214 218 223 229 234 237 240 241 242 245 246 247 246 245 245 245 245 245 245 246 247 246 245 245 244 241 243 247
241 240 240 238 233 231 231 234 237 236 233 234 237 243 241 230 228 233 232 232 233 230 229 230 231 229 226 223 217 207 206 217 229 232 226 221 229 244 259 269 275 276 272 268 270 270 263 256 253 251 251 252 254 257 262 266 266 261 256 251 248 245 241 236 234 228 219 213 212 215 223 230 235 239 241 242 242 240 240 240 242 244 244 244 245 245 245 244 243 244 245 248 250 248 246 246 249
238 237 236 235 232 230 231 234 237 238 236 233 233 240 245 236 229 232 229 225 224 224 225 228 228 226 225 221 212 206 208 216 223 221 217 221 233 247 261 271 277 276 270 267 269 267 259 251 247 246 248 251 254 256 261 265 266 263 259 254 252 249 243 240 236 225 215 211 213 222 233 237 240 241 241 240 240 239 237 233 233 237 241 243 243 242 241 241 240 242 245 248 250 249 248 249 250
238 238 237 236 235 233 234 235 237 239 239 235 233 238 244 241 234 230 222 216 217 222 224 223 222 222 222 217 211 209 212 217 221 223 223 226 236 249 263 272 276 273 268 268 265 260 254 248 245 245 250 252 253 255 258 262 265 264 262 259 257 255 249 244 238 227 218 217 226 242 247 243 240 238 235 232 232 234 234 231 227 229 235 240 242 240 237 235 235 238 242 243 243 242 246 249 250
240 240 241 240 240 238 239 239 238 240 241 238 236 237 240 241 236 228 219 213 217 225 226 223 220 218 217 214 215 219 221 223 228 232 232 233 241 255 267 272 272 270 270 267 258 252 251 249 248 250 252 251 250 251 254 259 263 263 262 260 258 257 252 244 236 231 227 231 242 250 249 242 236 231 227 224 225 228 231 231 228 226 230 236 240 241 238 235 234 236 240 243 243 244 248 252 254
242 243 244 243 242 241 241 242 241 243 244 238 235 234 236 239 236 227 218 214 219 227 225 221 218 216 218 221 223 225 227 228 233 238 238 242 252 262 269 271 271 272 273 265 252 247 249 250 250 249 247 245 244 247 253 258 262 261 258 256 255 255 252 247 243 241 241 242 243 241 237 231 225 222 220 218 221 226 229 229 226 225 228 232 239 244 242 238 236 238 242 246 248 250 253 256 259
244 244 244 242 241 240 240 242 244 246 244 235 233 230 231 236 236 228 219 215 219 224 219 214 213 211 214 219 221 225 229 232 236 240 242 249 258 264 268 270 270 273 273 262 249 245 245 246 244 241 237 237 239 243 251 256 259 257 252 251 253 254 253 251 247 245 241 236 234 232 226 218 214 213 212 212 216 223 227 227 224 224 225 227 234 242 242 238 236 237 241 245 248 251 252 255 257
241 240 240 239 239 240 241 243 246 248 242 235 233 228 228 234 235 230 220 217 220 221 217 214 215 215 214 214 217 223 230 235 239 242 245 251 256 260 265 267 267 270 268 258 248 242 239 239 237 234 231 232 236 241 247 252 254 253 251 251 251 252 251 249 246 243 236 231 230 227 217 210 209 209 207 209 215 222 228 227 223 223 224 222 223 227 229 228 227 229 233 238 242 246 248 249 252
234 233 234 236 238 240 243 244 246 246 240 235 233 229 228 232 234 231 221 217 220 221 220 219 219 221 222 221 222 225 229 235 239 242 244 248 251 255 261 262 262 264 261 253 245 238 235 236 234 230 225 228 236 241 245 247 249 249 247 244 241 240 240 240 241 236 230 228 227 219 211 212 213 212 215 220 224 227 231 231 227 225 225 222 220 220 223 228 231 234 237 240 243 247 250 253 258
233 235 237 240 243 244 243 243 243 243 239 236 235 230 228 231 233 231 224 218 220 223 225 226 226 226 227 228 228 230 232 234 238 240 241 244 247 252 259 260 259 260 257 250 244 238 234 235 233 226 222 228 235 241 244 245 244 242 237 230 228 229 231 233 236 230 225 227 227 220 217 221 223 223 227 231 234 235 236 235 230 228 228 228 226 226 229 235 240 243 246 247 248 250 252 255 259
234 239 243 246 247 245 243 244 243 243 241 240 239 233 228 231 232 230 226 220 220 223 227 232 233 233 233 230 230 233 236 236 236 236 237 241 246 251 255 255 255 256 253 247 243 238 234 234 232 225 224 231 240 245 245 243 240 238 234 230 231 235 240 246 248 242 234 232 232 228 225 226 228 231 232 234 240 244 244 240 233 229 231 233 235 236 237 239 243 246 249 251 252 252 253 255 258
232 237 241 241 242 243 243 244 244 242 242 242 242 236 229 229 230 229 226 223 221 223 226 232 235 238 239 236 235 238 242 243 240 236 235 238 243 246 248 249 250 252 248 242 239 237 234 234 231 226 226 232 239 243 242 240 237 237 238 239 241 243 247 252 255 253 244 237 235 232 227 223 223 227 232 236 243 249 252 249 236 229 229 232 235 238 239 242 244 246 249 251 252 251 251 253 257
232 233 234 233 236 242 244 246 247 248 247 245 243 236 229 228 229 228 225 224 224 224 227 231 234 239 243 244 246 247 250 251 244 238 236 237 240 243 245 247 249 249 244 238 238 238 234 232 229 226 227 232 237 242 243 242 240 239 242 243 245 247 247 252 257 254 246 242 239 236 229 223 222 225 228 234 244 254 260 260 250 236 228 227 230 232 236 240 241 242 244 245 245 245 246 250 255
230 229 229 229 231 237 241 244 247 248 249 249 245 235 229 228 228 229 227 226 226 227 230 232 235 240 245 249 253 254 258 254 238 232 235 236 237 240 241 244 246 245 242 238 239 240 235 232 230 229 231 235 240 244 245 245 243 243 245 246 248 249 245 247 253 251 247 250 252 250 244 236 232 231 231 234 242 253 260 261 253 240 231 228 230 233 236 238 239 241 242 241 242 242 244 248 251
228 227 227 228 230 235 238 240 243 244 244 246 245 239 232 230 229 230 230 230 228 228 231 233 236 241 245 250 254 257 259 248 227 224 230 232 233 235 235 239 242 241 238 235 236 238 237 236 235 234 238 244 249 255 257 257 254 250 250 251 252 253 249 246 250 251 253 257 259 259 257 253 247 243 242 242 246 252 257 255 248 241 237 235 235 236 238 240 243 245 246 246 246 247 249 252 254
224 223 224 226 229 233 235 239 243 245 243 241 243 243 238 233 231 230 232 234 233 232 234 236 239 242 245 247 250 255 257 245 227 221 225 228 229 229 225 227 233 233 233 234 235 236 237 239 239 238 242 249 253 258 265 272 272 265 258 256 257 260 260 255 253 257 262 264 262 261 262 263 261 258 256 255 255 255 253 249 245 244 245 243 241 240 242 244 246 246 247 247 247 247 249 252 255